Regional Weather Roundup
Issued by NWS

Home | Current Version | Previous Version | Graphics & Text | Print | Product List | Glossary On
Versions: 1 2 3 4 5 6 7 8 9 10 11 12 13 14 15 16 17 18 19 20 21 22 23 24 25 26 27 28 29 30 31 32 33 34 35 36 37 38 39 40 41 42 43 44 45 46 47 48 49 50
000
ASUS43 KLSX 301607
RWRMO

WEATHER SUMMARY FOR MISSOURI
NATIONAL WEATHER SERVICE SPRINGFIELD MO
1100 AM CDT TUE AUG 30 2016

NOTE: "FAIR" INDICATES FEW OR NO CLOUDS BELOW 12,000 FEET WITH NO
       SIGNIFICANT WEATHER AND/OR OBSTRUCTIONS TO VISIBILITY.
       CURRENT SKY AND/OR WEATHER CONDITIONS ARE NOT AVAILABLE FOR
       CHILLICOTHE AND FARMINGTON.

MOZ001>031-035>038-043-044-053-054-301700-
...NORTHERN AND WESTERN MISSOURI...

CITY           SKY/WX    TMP DP  RH WIND       PRES   REMARKS
KANSAS CTY INT DRIZZLE   77  71  82 N6        30.19R
KANSAS C DTWN  MOSUNNY   79  72  79 N6        30.16R
LEE`S SUMMIT   CLOUDY    78  71  79 E3        30.18R
ST JOSEPH      MOSUNNY   78  70  76 NE10      30.19S
CHILLICOTHE      N/A     80  73  79 VRB5      30.18R
KIRKSVILLE     CLOUDY    76  68  76 N8        30.20R

$$
MOZ066>068-077>081-088>096-101>105-301700-
...SOUTHWEST MISSOURI...

CITY           SKY/WX    TMP DP  RH WIND       PRES   REMARKS
SPRINGFIELD    CLOUDY    86  72  62 CALM      30.16S HX  92
JOPLIN         CLOUDY    86  73  65 CALM      30.15F HX  93
BRANSON        MOSUNNY   82  75  78 CALM      30.17S

$$
MOZ032>034-039>042-045>050-055>058-069>072-301700-
...CENTRAL MISSOURI...

CITY           SKY/WX    TMP DP  RH WIND       PRES   REMARKS
COLUMBIA       SUNNY     82  73  74 CALM      30.16S
JEFFERSON CITY FOG       84  74  71 N5        30.14S VSB 1   HX  91
ROLLA          SUNNY     84  72  67 VRB3      30.16S
SEDALIA        MOSUNNY   84  72  67 E5        30.17S
WHITEMAN AFB   MOSUNNY   81  75  80 NE6       30.16R
OSAGE BEACH    SUNNY     84  74  71 SW6       30.16F HX  91

$$
MOZ051-052-059>065-301700-
...EAST CENTRAL MISSOURI...

CITY           SKY/WX    TMP DP  RH WIND       PRES   REMARKS
ST LOUIS INTL  MOSUNNY   90  71  53 VRB5      30.14S HX  96
SPIRIT OF STL  MOSUNNY   88  73  61 W3        30.12S HX  95
ST CHARLES     SUNNY     85  74  69 W6        30.13R HX  92

$$
MOZ072>076-082>087-097>100-106>115-301700-
...SOUTH CENTRAL AND SOUTHEAST MISSOURI...

CITY           SKY/WX    TMP DP  RH WIND       PRES   REMARKS
CAPE GIRARDEAU SUNNY     88  73  61 NE6       30.11S HX  95
FARMINGTON     SUNNY     85  71  63 VRB3      30.16S HX  90
POPLAR BLUFF   SUNNY     86  75  69 VRB3      30.10F HX  95
WEST PLAINS    MOSUNNY   84  72  67 CALM      30.17F

$$



USA.gov is the U.S. government's official web portal to all federal, state and local government web resources and services.